Probability
45 48 32 23 19 6 3 0 0 0 0 3 0 3 6 6 3 0 0 0 0 0 0 0 0 0 0 0 0 0 0 0 0 0 0 0 0 0 0 0 0 0 0 3
19 19 13 6 6 3 0 0 0 0 3 0 0 0 3 3 6 3 3 0 0 0 0 0 0 0 0 0 0 0 0 0 0 0 0 0 0 0 0 0 0 0 0 3
6 3 0 0 0 0 0 0 0 0 0 0 0 0 0 3 3 3 3 0 0 0 0 0 0 0 0 0 0 0 0 0 0 0 0 0 0 0 0 0 0 0 0 3
0 0 0 0 0 0 0 0 0 0 0 0 0 0 0 3 3 0 0 0 0 0 0 0 0 0 0 0 0 0 0 0 0 0 0 0 0 0 0 0 0 0 3 3
0 0 0 0 0 0 0 0 0 0 0 0 0 0 0 3 0 0 0 0 0 0 0 0 0 0 0 0 0 0 0 0 0 0 0 0 0 0 0 0 0 0 0 3
0 0 0 0 0 0 0 0 0 0 0 0 0 0 0 0 0 0 0 0 0 0 0 0 0 0 0 0 0 0 0 0 0 0 0 0 0 0 0 0 0 0 0 0
0 0 0 0 0 0 0 0 0 0 0 0 0 0 0 0 0 0 0 0 0 0 0 0 0 0 0 0 0 0 0 0 0 0 0 0 0 0 0 0 0 0 0 0
0 0 0 0 0 0 0 0 0 0 0 0 0 0 0 0 0 0 0 0 0 0 0 0 0 0 0 0 0 0 0 0 0 0 0 0 0 0 0 0 0 0 0 0
0 0 0 0 0 0 0 0 0 0 0 0 0 0 0 0 0 0 0 0 0 0 0 0 0 0 0 0 0 0 0 0 0 0 0 0 0 0 0 0 0 0 0 0
0 0 0 0 0 0 0 0 0 0 0 0 0 0 0 0 0 0 0 0 0 0 0 0 0 0 0 0 0 0 0 0 0 0 0 0 0 0 0 0 0 3 3 0
0 0 0 0 0 0 0 0 0 0 0 0 0 0 0 0 0 0 0 0 0 0 0 0 0 0 0 0 0 0 0 0 0 0 0 0 0 0 0 0 0 0 3 0
0 0 0 0 0 0 0 0 0 0 0 0 0 0 0 0 0 0 0 0 0 0 0 0 0 0 0 0 0 0 0 0 0 0 0 0 0 0 0 0 0 0 0 0
0 0 0 0 0 0 0 0 0 0 0 0 0 0 0 0 0 0 0 0 0 0 0 0 0 0 0 0 0 0 0 0 0 0 0 0 0 0 0 0 0 0 0 0
0 0 0 0 0 0 0 0 0 0 0 0 0 0 0 0 0 0 0 0 0 0 0 0 0 0 0 0 0 0 0 0 0 0 0 0 0 0 0 0 0 0 0 0
0 0 0 0 0 0 0 0 0 0 0 0 0 0 0 0 0 0 0 0 0 0 0 0 0 0 0 0 0 0 0 0 0 0 0 0 0 0 0 0 0 0 0 0
0 0 0 0 0 0 0 0 0 0 0 0 0 0 0 0 0 0 0 0 0 0 0 0 0 0 0 0 0 0 0 0 0 0 0 0 0 0 0 0 0 0 0 0
0 0 0 0 0 0 0 0 0 0 0 0 0 0 0 0 0 0 0 0 0 0 0 0 0 0 0 0 0 0 0 0 0 0 0 0 0 0 0 0 0 0 0 0
0 0 0 0 0 0 0 0 0 0 0 0 0 0 0 0 0 0 0 0 0 0 0 0 0 0 0 0 0 0 0 0 0 0 0 0 0 0 0 0 0 0 0 0
0 0 0 0 0 0 0 0 0 0 0 0 0 0 0 0 0 0 0 0 0 0 0 0 0 0 0 0 0 0 0 0 0 0 0 0 0 0 0 0 0 0 0 0
0 0 0 0 0 0 0 0 0 0 0 0 0 0 0 0 0 0 0 0 0 0 0 0 0 0 0 0 0 0 0 0 0 0 0 0 0 0 0 0 0 0 0 0
0 0 0 0 0 0 0 0 0 0 0 0 0 0 0 0 0 0 0 0 0 0 0 0 0 0 0 0 0 0 0 0 0 0 0 0 0 0 0 0 0 0 0 0
0 0 0 0 0 0 0 0 0 0 0 0 0 0 0 0 0 0 0 0 0 0 0 0 0 0 0 0 0 0 0 0 0 0 0 0 0 0 0 0 0 0 0 0
0 0 0 0 0 0 0 0 0 0 0 0 0 0 0 0 0 0 0 0 0 0 0 0 0 0 0 0 0 0 0 0 0 0 0 0 0 0 0 0 0 0 0 0
0 0 0 0 0 0 0 0 0 0 0 0 0 0 0 0 0 0 0 0 0 0 0 0 0 0 0 0 0 0 0 0 0 0 0 0 0 0 0 0 0 0 0 0
0 0 0 0 0 0 0 0 0 0 0 0 0 0 0 0 0 0 0 0 0 0 0 0 0 0 0 0 0 0 0 0 0 0 0 0 0 0 0 0 0 0 0 0
0 0 0 0 0 0 0 0 0 0 0 0 0 0 0 0 0 0 0 0 0 0 0 0 0 0 0 0 0 0 0 0 0 0 0 0 0 0 0 0 0 0 0 0
Height
5875 5878 5880 5882 5883 5883 5883 5883 5883 5882 5881 5880 5878 5876 5874 5872 5870 5867 5864 5861 5857 5854 5850 5846 5842 5838 5834 5829 5824 5820 5816 5811 5807 5803 5800 5796 5792 5789 5786 5784 5782 5782 5782 5783
5872 5875 5878 5879 5880 5880 5881 5881 5882 5880 5879 5878 5876 5875 5873 5870 5868 5866 5863 5860 5857 5853 5849 5845 5841 5837 5833 5828 5823 5819 5814 5810 5805 5801 5797 5793 5789 5786 5783 5780 5778 5777 5777 5778
5870 5873 5874 5876 5877 5878 5880 5880 5879 5878 5877 5876 5875 5874 5872 5870 5868 5865 5863 5860 5856 5853 5849 5845 5841 5837 5832 5827 5822 5818 5813 5808 5804 5799 5795 5791 5787 5783 5780 5777 5775 5774 5773 5773
5866 5869 5871 5873 5874 5876 5877 5877 5877 5876 5876 5875 5874 5872 5870 5868 5867 5865 5862 5859 5856 5853 5849 5845 5841 5836 5832 5827 5822 5817 5812 5807 5803 5798 5794 5790 5786 5782 5779 5775 5773 5771 5770 5769
5863 5866 5869 5871 5872 5873 5874 5875 5875 5875 5874 5874 5873 5872 5871 5868 5866 5865 5862 5859 5856 5852 5849 5845 5841 5836 5832 5827 5822 5817 5812 5807 5802 5798 5793 5789 5785 5781 5777 5774 5771 5769 5767 5766
5860 5863 5866 5868 5870 5872 5872 5873 5874 5873 5873 5873 5873 5872 5871 5867 5866 5864 5862 5859 5856 5852 5849 5845 5841 5836 5832 5827 5822 5817 5812 5808 5803 5798 5793 5788 5784 5780 5776 5773 5770 5767 5764 5763
5859 5862 5865 5867 5868 5870 5871 5872 5872 5873 5873 5873 5872 5872 5871 5868 5866 5864 5862 5859 5856 5852 5849 5845 5841 5837 5832 5828 5823 5818 5813 5808 5803 5798 5793 5789 5784 5780 5776 5772 5769 5765 5763 5760
5859 5862 5863 5865 5867 5867 5868 5870 5871 5872 5874 5873 5871 5870 5870 5868 5866 5864 5861 5859 5856 5853 5849 5846 5842 5838 5833 5829 5824 5819 5814 5809 5804 5799 5794 5789 5784 5779 5775 5771 5768 5764 5761 5758
5857 5860 5861 5863 5864 5866 5866 5867 5868 5869 5870 5871 5870 5869 5869 5867 5866 5864 5861 5859 5856 5853 5850 5847 5843 5839 5835 5830 5826 5821 5816 5811 5806 5801 5795 5790 5785 5780 5775 5771 5767 5763 5760 5756
5855 5857 5860 5861 5863 5864 5865 5865 5867 5867 5868 5869 5871 5868 5867 5866 5865 5863 5861 5859 5856 5853 5850 5847 5844 5840 5836 5832 5827 5823 5818 5813 5808 5802 5797 5792 5786 5781 5776 5772 5767 5763 5759 5756
5854 5857 5858 5860 5861 5862 5863 5864 5865 5866 5866 5867 5868 5869 5866 5865 5864 5863 5861 5859 5856 5854 5851 5848 5845 5841 5837 5833 5829 5824 5820 5815 5810 5804 5799 5794 5788 5783 5778 5773 5769 5764 5760 5756
5853 5855 5857 5858 5859 5860 5861 5862 5863 5865 5865 5865 5866 5869 5865 5864 5863 5862 5860 5858 5856 5854 5851 5848 5845 5842 5838 5834 5830 5826 5821 5816 5811 5806 5801 5796 5790 5785 5780 5775 5770 5766 5762 5757
5852 5855 5857 5858 5859 5859 5859 5860 5862 5863 5864 5864 5865 5867 5864 5863 5862 5861 5860 5858 5856 5854 5851 5849 5846 5843 5839 5835 5831 5827 5823 5818 5813 5808 5803 5798 5793 5788 5782 5778 5773 5768 5764 5759
5851 5853 5855 5856 5855 5856 5858 5859 5860 5862 5862 5863 5864 5864 5863 5862 5862 5861 5859 5858 5856 5854 5851 5849 5846 5843 5840 5836 5832 5828 5824 5820 5815 5810 5805 5800 5795 5790 5785 5780 5775 5771 5766 5761
5849 5851 5852 5853 5854 5855 5856 5857 5859 5860 5861 5862 5862 5862 5862 5861 5861 5860 5859 5857 5855 5853 5851 5849 5846 5843 5840 5836 5833 5829 5825 5821 5816 5812 5807 5802 5797 5792 5787 5783 5778 5773 5769 5764
5847 5849 5850 5851 5852 5853 5854 5856 5857 5859 5859 5860 5861 5861 5860 5860 5859 5859 5857 5856 5854 5853 5850 5848 5845 5842 5839 5836 5833 5829 5826 5822 5817 5813 5809 5804 5799 5795 5790 5785 5780 5776 5771 5766
5845 5847 5848 5849 5850 5851 5853 5854 5856 5857 5858 5858 5859 5860 5859 5859 5858 5857 5856 5855 5853 5851 5849 5847 5844 5842 5839 5836 5833 5829 5826 5822 5818 5814 5810 5805 5801 5796 5792 5787 5783 5778 5773 5769
5844 5845 5846 5847 5849 5850 5853 5853 5854 5855 5856 5856 5857 5857 5857 5857 5856 5855 5854 5853 5852 5850 5848 5846 5843 5841 5838 5835 5832 5829 5826 5822 5818 5814 5810 5806 5802 5797 5793 5789 5784 5780 5776 5771
5842 5843 5844 5846 5847 5848 5850 5851 5852 5853 5854 5854 5855 5855 5855 5854 5854 5853 5852 5851 5850 5848 5846 5844 5842 5839 5837 5834 5831 5828 5825 5821 5818 5814 5810 5806 5802 5798 5794 5790 5786 5781 5777 5773
5840 5841 5843 5844 5845 5846 5848 5849 5849 5851 5851 5852 5852 5852 5852 5852 5851 5852 5850 5848 5847 5846 5844 5842 5840 5837 5835 5832 5829 5826 5823 5820 5817 5813 5810 5806 5802 5798 5794 5790 5786 5782 5778 5774
5838 5839 5840 5841 5842 5843 5845 5846 5847 5849 5850 5849 5849 5849 5849 5848 5848 5848 5847 5845 5844 5843 5841 5839 5837 5835 5833 5830 5827 5824 5821 5818 5815 5812 5808 5805 5801 5798 5794 5790 5786 5783 5779 5775
5834 5836 5837 5838 5839 5842 5842 5842 5844 5844 5845 5845 5845 5845 5845 5845 5844 5844 5843 5842 5841 5839 5838 5836 5834 5832 5829 5827 5824 5822 5819 5816 5813 5810 5806 5803 5800 5796 5793 5789 5786 5782 5779 5775
5831 5833 5833 5835 5837 5837 5838 5838 5839 5840 5840 5841 5841 5841 5841 5841 5840 5840 5839 5838 5837 5835 5834 5832 5830 5828 5826 5823 5821 5818 5816 5813 5810 5807 5804 5801 5798 5794 5791 5788 5785 5781 5778 5775
5826 5827 5829 5830 5831 5832 5833 5833 5834 5835 5835 5836 5836 5836 5836 5836 5836 5835 5834 5833 5832 5831 5829 5827 5826 5824 5822 5819 5817 5814 5812 5809 5806 5803 5801 5798 5795 5792 5789 5786 5782 5779 5776 5773
5821 5822 5823 5824 5826 5826 5827 5828 5829 5830 5830 5830 5831 5831 5831 5831 5830 5830 5829 5828 5827 5826 5824 5822 5821 5819 5817 5814 5812 5809 5807 5804 5802 5799 5796 5794 5791 5788 5785 5782 5779 5776 5774 5771
5815 5816 5817 5818 5820 5820 5822 5822 5823 5823 5824 5824 5825 5825 5825 5825 5824 5824 5823 5822 5821 5820 5818 5817 5815 5813 5811 5809 5806 5804 5802 5799 5796 5794 5791 5788 5786 5783 5781 5778 5775 5772 5770 5767
Wind_Speed
19 18 16 14 14 15 14 12 13 18 16 16 15 15 16 15 15 17 18 19 20 21 21 21 22 22 22 23 23 22 22 21 21 21 20 20 19 19 19 19 19 20 22 24
19 18 15 15 16 15 13 13 14 17 15 13 13 13 13 14 15 15 16 17 18 19 20 21 21 22 22 23 23 22 22 21 21 20 20 19 18 17 16 16 16 17 18 20
17 15 15 16 14 14 14 15 15 15 14 13 11 11 11 12 14 14 15 16 17 18 19 20 21 22 22 22 22 22 22 22 21 21 20 19 18 17 16 15 14 15 16 17
18 17 16 16 14 14 15 14 13 12 12 10 9 10 11 11 12 13 14 15 16 17 18 19 20 21 22 22 22 22 22 22 22 21 20 19 19 17 16 15 14 13 14 15
19 18 17 16 15 14 14 12 10 10 9 7 7 8 11 11 12 13 14 15 16 17 18 19 20 20 21 22 22 22 22 22 22 21 21 20 19 18 17 16 15 13 13 13
19 18 17 16 14 13 12 10 8 6 5 4 6 7 10 11 12 13 13 14 15 16 17 18 19 20 21 22 23 22 22 23 23 22 21 20 20 18 17 16 15 14 13 12
17 16 16 14 13 12 11 9 5 3 5 7 7 8 9 10 11 12 13 14 15 15 16 17 19 20 21 22 23 23 23 23 23 23 22 21 20 19 18 17 16 15 14 13
12 13 14 13 13 11 10 8 7 6 4 8 8 8 7 8 9 10 11 12 13 14 15 17 18 20 21 22 23 23 23 23 24 24 23 23 22 21 19 18 17 17 15 14
13 13 12 11 11 11 9 9 9 8 7 5 7 6 4 7 7 9 10 11 12 13 15 16 17 19 20 21 23 23 24 24 24 24 24 24 23 22 21 20 19 18 17 15
13 13 11 11 11 10 10 9 9 8 7 5 5 9 5 5 7 8 9 10 11 13 14 15 17 18 19 21 22 23 24 24 24 25 25 25 25 24 22 22 21 20 19 17
12 9 9 10 10 9 9 9 9 8 7 7 6 7 5 5 6 7 8 10 11 12 14 15 16 17 19 20 21 23 24 24 25 25 26 26 26 25 24 23 22 21 20 19
14 10 7 8 7 8 9 9 10 9 8 7 6 5 3 4 5 7 8 9 10 12 13 14 15 17 18 19 20 22 23 24 24 25 26 26 26 25 25 24 23 22 21 21
15 12 7 8 8 9 10 10 10 9 8 7 6 4 3 4 5 6 7 8 10 11 12 14 15 16 17 19 20 21 22 23 24 25 25 26 25 26 25 25 25 24 23 22
14 13 11 11 11 10 10 10 10 10 9 7 7 5 4 4 5 6 7 8 9 10 12 13 14 16 17 18 19 20 21 22 23 24 25 26 25 25 25 25 25 24 24 23
12 12 12 12 12 12 11 10 10 10 9 8 7 6 5 5 6 6 7 8 9 10 12 13 14 15 16 17 18 19 20 21 22 23 24 25 25 25 25 25 25 25 24 24
11 11 12 11 11 11 11 10 10 10 10 9 8 7 6 6 6 6 7 8 9 11 12 13 14 14 15 16 17 18 19 20 21 22 23 24 24 25 25 24 24 25 24 24
11 11 11 10 11 11 11 10 11 10 10 9 9 8 7 7 7 7 8 9 10 11 12 13 13 14 15 16 17 18 19 20 21 21 22 23 23 24 24 24 24 25 25 24
11 11 11 11 11 11 10 9 10 10 10 10 9 9 9 8 8 8 9 10 11 11 12 13 13 14 15 16 17 18 18 19 20 21 22 22 23 23 23 23 24 24 24 24
12 12 12 12 11 10 10 10 11 11 11 11 10 10 10 10 10 10 10 11 12 12 13 13 14 15 15 16 17 18 18 19 19 20 21 21 22 22 22 23 23 23 23 23
12 13 13 12 12 12 11 11 12 12 12 12 12 12 12 12 12 11 12 13 13 13 14 14 15 16 16 17 17 18 18 19 19 20 21 21 21 22 22 22 22 22 22 22
14 14 14 14 15 14 12 12 14 14 12 13 13 13 13 14 14 13 14 14 14 15 15 16 16 17 17 18 18 18 19 19 19 20 20 21 21 21 21 21 21 22 21 21
16 16 16 16 17 16 14 14 16 16 15 15 15 15 15 15 15 15 15 15 16 16 17 17 18 18 18 19 19 19 19 20 20 21 21 21 21 21 21 21 21 21 21 21
18 18 18 19 18 17 17 17 17 18 17 17 17 17 17 17 17 17 17 17 18 18 19 19 19 20 20 20 20 20 21 21 21 21 21 22 22 22 22 21 21 21 20 20
21 21 21 21 20 20 20 20 19 20 20 19 19 19 19 19 19 19 19 19 20 20 20 20 21 21 21 21 22 22 22 22 23 23 23 23 23 22 22 22 21 21 21 20
24 23 23 23 23 23 22 22 22 22 21 21 21 21 21 21 21 21 21 21 22 22 22 22 23 23 23 23 23 24 24 24 24 25 25 24 24 24 23 23 22 22 21 21
25 26 26 25 24 25 24 23 23 24 24 24 23 23 23 23 23 23 23 23 23 24 24 25 25 25 25 25 25 26 26 27 27 27 27 26 26 25 25 24 24 23 23 22
Wind_Direction
230 234 238 245 251 254 265 280 293 293 302 307 310 316 323 331 335 336 339 343 345 346 348 349 349 349 349 348 346 344 341 339 337 333 330 325 319 314 308 298 286 276 268 263
227 232 236 240 247 256 270 278 279 287 300 302 308 315 324 332 337 340 343 345 347 349 350 351 352 352 351 351 351 350 348 346 344 340 338 335 331 325 319 311 298 286 276 268
225 229 233 239 248 261 266 269 276 288 298 304 310 314 327 338 341 344 347 349 349 350 350 351 352 353 353 353 354 354 353 352 350 348 346 344 341 336 330 321 309 296 285 276
217 224 231 242 247 253 262 272 281 288 296 303 316 326 333 342 347 348 350 351 352 352 352 353 354 356 357 358 357 357 357 355 353 352 350 349 347 344 339 332 323 309 294 284
215 222 229 239 247 254 263 273 281 288 295 302 320 330 326 341 345 350 352 353 354 355 356 357 359 0 2 3 2 3 3 1 359 357 355 353 351 350 346 341 335 325 310 296
218 227 232 237 249 257 263 270 269 283 306 315 315 319 316 337 344 348 351 353 355 356 360 3 4 6 7 8 8 7 6 6 5 4 2 0 358 356 353 348 343 337 327 313
219 230 236 245 250 252 255 254 247 299 333 316 301 304 311 334 340 344 348 352 356 1 4 6 7 9 10 11 10 10 10 9 8 7 6 4 2 0 357 354 350 345 338 327
224 243 240 243 247 250 246 237 227 201 217 273 285 292 320 332 339 344 349 354 359 3 6 8 10 12 13 14 14 13 13 12 11 10 9 7 5 3 1 360 357 353 348 340
202 233 243 242 244 247 242 233 233 227 212 239 288 295 314 325 336 343 351 356 359 4 8 10 13 14 16 17 17 17 16 16 15 15 13 12 11 9 7 5 3 0 358 352
201 223 241 247 247 245 241 235 229 220 215 207 270 291 313 327 336 344 353 359 4 8 10 12 14 16 17 17 18 18 18 18 17 16 15 14 14 13 13 10 8 7 5 2
202 227 246 246 249 245 232 226 222 221 217 207 220 265 312 325 336 345 353 360 4 7 10 12 14 15 15 16 17 18 18 17 17 17 17 17 16 16 16 14 13 13 12 9
212 222 254 260 249 242 234 226 218 215 214 218 234 263 288 314 332 342 350 356 1 5 7 9 11 12 13 14 14 15 16 16 17 17 17 18 18 18 18 19 18 16 15 14
215 216 216 257 257 237 229 221 218 217 217 222 237 255 270 305 325 336 343 350 355 359 2 5 7 8 10 11 12 13 14 15 16 16 17 18 19 19 19 19 19 19 18 16
219 216 213 231 245 235 220 218 216 217 221 226 240 255 268 297 315 326 335 343 349 353 357 0 2 3 5 7 9 10 11 13 14 15 16 17 17 18 19 18 18 19 19 18
223 219 220 230 238 234 224 218 215 217 222 231 240 253 272 293 306 317 328 337 343 347 351 355 358 360 2 3 5 7 9 10 11 13 14 16 16 17 17 18 18 17 18 18
229 228 227 228 229 226 222 218 215 218 224 234 245 256 272 288 300 311 321 328 334 340 344 348 352 354 356 359 2 4 5 6 8 9 10 12 13 14 15 15 15 15 16 17
233 232 229 225 223 224 223 218 218 222 229 237 247 257 268 280 292 303 313 320 326 332 337 341 345 348 351 354 357 359 1 2 4 4 6 7 9 10 11 13 13 14 15 16
233 229 227 225 226 229 221 220 224 229 234 240 248 256 265 274 283 294 305 314 321 326 330 334 339 342 345 347 349 352 354 356 358 360 1 2 4 5 7 8 9 10 12 13
233 231 229 229 231 234 225 225 232 235 238 243 250 258 265 273 280 290 299 306 314 319 323 327 331 335 337 340 342 344 347 350 352 354 355 357 358 360 1 3 4 6 8 9
233 233 234 234 237 240 231 229 239 242 244 247 253 259 266 274 281 289 295 301 307 312 316 320 324 327 330 332 335 337 340 342 345 346 349 350 352 354 356 358 0 1 3 4
235 236 238 239 242 244 239 241 246 250 250 252 257 262 268 275 282 288 292 297 301 305 309 313 317 320 322 325 328 330 333 335 338 340 342 345 346 348 351 353 355 357 358 359
239 239 240 242 245 246 246 249 252 256 256 258 261 265 270 275 281 285 289 292 296 299 303 307 311 314 317 319 321 323 325 328 330 332 334 336 339 341 342 345 347 349 352 354
243 243 244 246 249 252 252 253 255 258 259 261 264 267 270 274 279 282 285 288 292 296 299 303 306 309 312 314 316 317 319 321 322 325 327 329 331 333 335 336 339 341 344 346
244 244 247 250 252 254 255 256 257 259 261 263 265 268 271 274 277 280 283 286 290 293 296 300 303 305 307 309 311 312 314 315 317 319 320 322 323 325 327 329 331 332 334 337
246 248 249 251 253 255 256 257 259 261 263 265 267 269 272 274 277 280 283 286 289 291 294 297 299 301 303 305 307 309 310 311 312 314 315 316 317 319 320 322 323 324 326 327
250 251 252 252 253 255 257 259 260 262 263 265 267 269 271 274 277 279 282 284 287 290 292 295 297 299 301 302 304 305 306 307 308 309 310 311 312 313 314 315 316 317 318 320